Regional Weather Roundup
Issued by NWS

Home | Current Version | Previous Version | Text Only | Print | Product List | Glossary Off
Versions: 1 2 3 4 5 6 7 8 9 10 11 12 13 14 15 16 17 18 19 20 21 22 23 24 25 26 27 28 29 30 31 32 33 34 35 36 37 38 39 40 41 42 43 44 45 46 47 48 49 50

000
ASUS43 KLSX 060807
RWRMO

WEATHER SUMMARY FOR MISSOURI
NATIONAL WEATHER SERVICE SPRINGFIELD MO
300 AM CDT WED MAY 06 2015

NOTE: "FAIR" INDICATES FEW OR NO CLOUDS BELOW 12,000 FEET WITH NO
       SIGNIFICANT WEATHER AND/OR OBSTRUCTIONS TO VISIBILITY.
       CURRENT SKY AND/OR WEATHER CONDITIONS ARE NOT AVAILABLE FOR
       CHILLICOTHE AND FARMINGTON.

MOZ001>031-035>038-043-044-053-054-060900-
...NORTHERN AND WESTERN MISSOURI...

CITY           SKY/WX    TMP DP  RH WIND       PRES   REMARKS
KANSAS CTY INT CLOUDY    67  57  70 SE14      29.96F
KANSAS C DTWN  MOCLDY    70  55  59 SE10      29.96F
LEE`S SUMMIT   CLOUDY    67  55  65 SE8       29.98F
ST JOSEPH      PTCLDY    64  60  87 SE6       29.96F
CHILLICOTHE      N/A     67  59  75 SE5       30.02F
KIRKSVILLE     MOCLDY    64  59  83 SE8       30.06F

$$
MOZ066>068-077>081-088>096-101>105-060900-
...SOUTHWEST MISSOURI...

CITY           SKY/WX    TMP DP  RH WIND       PRES   REMARKS
SPRINGFIELD    CLOUDY    67  52  58 SE16      30.04F
JOPLIN         CLOUDY    69  54  58 SE12      29.98F

$$
MOZ032>034-039>042-045>050-055>058-069>072-060900-
...CENTRAL MISSOURI...

CITY           SKY/WX    TMP DP  RH WIND       PRES   REMARKS
COLUMBIA       PTCLDY    63  57  81 E7        30.06F
JEFFERSON CITY FAIR      63  56  78 E8        30.06F
ROLLA          CLEAR     64  52  64 SE10      30.07F
SEDALIA        MOCLDY    64  55  72 SE9       30.03F
WHITEMAN AFB   MOCLDY    67  55  66 S9        29.99F
WARRENSBURG    CLOUDY    64  54  68 SE9       29.99F
OSAGE BEACH    PTCLDY    64  52  63 SE5       30.06S

$$
MOZ051-052-059>065-060900-
...EAST CENTRAL MISSOURI...

CITY           SKY/WX    TMP DP  RH WIND       PRES   REMARKS
ST LOUIS INTL  PTCLDY    71  56  58 S8        30.11F
SPIRIT OF STL  PTCLDY    67  56  67 CALM      30.09F
ST CHARLES     CLEAR     60  56  86 NE3       30.10F

$$
MOZ072>076-082>087-097>100-106>115-060900-
...SOUTH CENTRAL AND SOUTHEAST MISSOURI...

CITY           SKY/WX    TMP DP  RH WIND       PRES   REMARKS
CAPE GIRARDEAU CLEAR     61  54  77 CALM      30.13F
FARMINGTON     CLEAR     57  54  88 CALM      30.16F
POPLAR BLUFF   CLEAR     57  53  86 CALM      30.11F
WEST PLAINS    CLEAR     59  50  72 SE3       30.11F

$$


USA.gov is the U.S. government's official web portal to all federal, state and local government web resources and services.